Wind_Speed
63 62 61 61 60 60 60 59 59 58 55 52 51 51 49 46 45 41 33 30 27 23 24 22 18 19 22 24 28 31 33 37 40 42 43 43 43 43 44 44 42 41 41 39 37 35 32 29 28 29 27 24 23 23 24 27 28 28 27 26 25 25 25 23 21 21 22 21 21 21 20 19 18 18 17 17 18 18 18 18 18 18 18 18 18 18 19
65 64 62 61 60 60 60 59 60 59 56 53 53 52 49 48 48 41 35 35 33 30 29 24 20 21 23 24 25 26 29 33 36 39 42 45 46 46 46 46 44 43 42 41 39 35 33 30 30 29 27 24 23 22 23 25 26 26 26 25 24 25 25 23 22 23 23 22 21 20 19 17 16 15 14 14 13 13 13 14 13 13 14 14 14 15 16
66 64 63 63 61 60 60 60 60 59 57 55 55 54 51 51 49 42 38 40 38 33 30 26 23 24 25 25 25 25 27 30 33 37 41 44 47 48 48 47 45 43 43 42 40 36 33 30 29 29 30 27 25 24 23 23 24 25 26 24 24 25 24 23 23 23 22 21 21 19 18 16 15 14 13 11 10 10 10 9 7 7 8 9 10 12 14
67 66 65 64 63 63 63 62 60 59 58 56 56 55 52 51 49 43 41 44 41 35 30 26 25 26 26 26 26 26 26 27 30 33 36 40 44 47 48 47 45 43 43 43 42 38 34 32 30 30 31 29 26 25 24 22 22 24 25 25 24 24 24 24 23 23 22 21 20 19 18 17 16 15 14 13 11 10 9 7 6 6 6 6 7 9 11
69 69 67 66 65 65 64 62 60 59 58 57 56 55 53 51 49 45 45 45 40 34 31 28 27 27 27 27 27 27 27 28 28 29 31 34 38 41 44 44 43 42 42 44 44 41 37 35 32 31 32 29 25 24 25 23 23 23 24 24 24 24 24 25 24 22 21 21 20 20 19 18 18 18 16 14 12 10 9 8 8 7 7 7 7 7 8
71 72 70 68 67 67 64 61 59 60 59 57 56 55 53 51 50 47 47 44 37 34 34 32 29 28 28 28 29 30 30 30 29 29 29 30 32 34 37 40 41 40 41 43 44 43 42 38 34 34 34 29 24 24 26 25 24 23 23 24 24 24 25 25 23 22 21 21 20 20 20 20 20 18 16 14 13 12 11 11 10 10 10 10 10 10 10
74 74 72 70 68 68 66 63 61 61 60 59 58 57 54 53 51 48 47 44 38 37 38 34 30 30 31 30 31 32 32 32 31 30 30 30 30 30 31 33 35 37 40 42 43 45 45 41 37 36 33 28 24 24 25 24 24 24 24 25 25 26 26 25 24 24 22 21 21 21 21 21 20 18 17 15 14 14 14 14 14 14 15 15 15 14 14
76 75 74 72 70 69 68 66 63 61 61 61 61 59 57 54 52 50 48 44 39 39 40 36 31 32 33 33 33 33 33 33 32 30 30 30 30 30 29 28 30 32 37 40 42 45 46 43 39 35 31 28 26 25 24 25 26 26 26 26 27 27 28 27 26 24 23 22 23 22 22 22 21 20 19 18 18 18 19 19 19 20 20 20 20 20 20
77 76 75 74 73 71 69 67 65 64 63 63 62 60 59 56 54 52 50 46 41 40 41 38 34 34 35 34 33 34 35 35 34 32 31 31 30 30 29 28 28 30 33 36 39 43 44 43 40 35 32 30 28 26 25 26 26 28 27 27 28 28 27 26 24 24 24 24 24 24 23 23 23 23 23 22 23 23 23 24 24 24 24 25 26 26 26
78 78 77 75 74 72 70 69 68 67 65 63 62 61 60 58 56 55 52 48 44 42 42 41 38 38 38 34 31 32 35 36 35 34 33 32 32 31 29 28 28 29 30 31 34 38 42 43 41 36 33 31 28 26 27 27 27 28 27 26 25 24 23 23 23 25 26 27 27 26 26 26 26 26 27 26 26 27 28 29 28 28 29 30 31 31 30
80 79 78 76 75 73 72 72 72 69 66 65 64 62 61 60 57 55 53 51 47 44 44 43 41 41 41 36 30 31 35 36 35 35 35 34 34 32 31 29 28 29 30 30 30 33 37 40 41 36 33 31 29 28 28 29 28 28 25 22 21 20 21 24 26 28 29 29 29 29 28 28 29 29 29 29 30 31 32 33 33 34 34 33 33 34 34
82 80 79 78 76 75 75 75 74 71 68 66 65 63 62 61 58 55 53 52 48 45 45 44 43 43 43 38 32 32 35 36 36 35 35 35 34 33 32 30 29 29 30 29 29 30 33 37 40 37 34 31 30 30 30 30 29 28 26 23 22 23 24 25 27 29 30 30 31 30 29 30 30 31 31 32 34 36 36 36 37 37 37 36 35 36 37
82 82 82 80 79 77 76 75 74 72 70 68 66 65 63 61 59 56 54 52 49 46 45 45 45 44 43 39 35 34 37 38 37 35 35 34 34 33 32 31 31 31 30 29 29 29 31 36 39 38 34 32 31 31 31 30 30 30 29 27 27 27 26 25 26 27 29 31 32 33 34 34 34 33 34 35 37 38 38 38 39 39 38 38 37 38 38
84 84 83 82 81 79 77 76 75 73 71 70 68 66 63 61 60 58 55 53 51 48 46 45 45 44 43 40 37 36 38 39 38 36 35 34 34 33 32 31 31 31 31 30 30 30 31 35 37 37 35 33 33 33 33 32 31 30 30 29 28 28 28 28 27 27 28 31 32 33 34 33 32 32 34 37 40 40 38 38 38 39 39 39 40 40 41
86 86 85 84 83 81 78 76 74 73 72 71 69 67 64 62 60 58 56 53 51 49 46 45 45 44 42 41 39 38 38 39 39 38 36 35 34 33 33 32 31 31 31 30 30 30 32 34 36 37 36 36 36 36 35 33 31 30 30 30 30 30 30 31 31 30 31 31 30 29 29 29 28 29 31 35 38 39 37 36 37 38 38 39 41 41 41
87 87 87 87 84 82 80 77 73 73 73 71 69 68 67 64 61 59 57 54 51 49 47 45 45 44 42 41 40 39 38 39 39 39 37 35 34 34 33 32 32 31 30 30 31 31 32 34 36 37 38 38 38 37 36 35 34 33 33 33 34 34 34 34 35 34 34 34 32 31 31 31 31 32 33 34 35 36 36 36 37 37 39 41 43 43 43
91 91 89 88 85 82 81 79 75 74 74 71 69 69 68 66 63 60 58 54 51 48 47 46 45 45 43 41 40 40 39 39 39 39 39 37 36 35 34 34 33 31 30 30 30 31 33 34 36 38 39 41 41 41 40 39 38 37 37 37 37 37 38 38 39 39 38 36 35 35 35 35 35 36 36 37 37 37 38 38 38 39 42 44 46 47 47
93 93 90 88 86 84 84 82 78 75 73 71 70 70 68 66 64 62 59 56 51 47 46 45 46 45 44 42 40 39 38 39 39 40 40 39 38 36 36 35 34 33 31 31 30 31 33 34 36 37 39 41 43 43 42 41 41 41 41 40 40 40 41 41 42 42 41 40 39 39 39 39 39 39 40 41 41 41 41 40 41 43 45 47 49 50 50
91 93 92 90 88 87 86 83 78 74 70 69 70 71 69 66 64 61 59 57 53 48 45 44 45 45 45 43 41 39 38 38 38 39 40 40 40 38 36 36 35 34 33 32 31 32 33 35 36 37 38 40 41 41 42 42 43 43 44 43 43 43 43 43 44 44 43 42 41 41 41 41 42 43 44 44 44 43 43 44 45 47 49 50 52 53 53
88 92 92 91 90 89 86 83 79 76 73 71 71 71 69 67 65 62 60 58 54 48 45 44 44 44 45 44 42 40 38 37 37 38 40 41 41 40 38 37 36 36 35 34 33 33 34 36 37 38 38 39 40 40 40 41 42 43 43 43 43 43 43 44 44 43 43 42 42 42 43 44 45 45 45 45 45 45 45 46 48 49 50 51 52 53 54
85 90 91 90 90 90 87 84 82 80 76 74 72 70 69 67 65 62 61 59 55 49 44 43 43 44 44 44 43 41 39 37 36 37 38 40 41 41 39 38 37 36 36 35 35 34 34 36 38 39 39 40 40 40 41 40 40 40 40 41 41 41 41 41 41 42 42 43 44 44 45 45 46 46 45 46 46 46 46 48 50 51 52 52 53 54 56
79 84 85 85 88 89 87 85 84 82 78 74 72 70 69 67 65 63 61 60 57 50 44 42 43 43 44 44 43 42 40 38 37 36 37 39 41 41 40 39 38 37 37 37 37 36 35 37 39 40 41 42 42 42 42 42 41 41 41 41 41 41 41 41 42 43 44 46 46 47 47 47 46 45 45 46 47 48 49 51 53 54 55 56 57 58 59
72 74 75 79 84 87 87 86 85 82 79 76 74 71 69 67 66 64 61 59 57 51 45 42 42 42 42 43 43 42 41 39 37 36 36 37 39 40 41 40 39 38 37 37 37 37 37 37 38 41 42 44 44 44 44 43 43 43 43 44 44 44 44 45 46 47 49 49 49 49 48 46 45 44 45 47 48 50 52 53 55 56 57 57 58 60 62
62 63 67 75 81 83 84 85 84 82 79 76 74 71 69 68 67 66 62 59 57 53 45 42 42 42 41 40 41 40 40 39 37 36 35 36 37 39 40 40 39 38 37 36 36 36 37 37 37 38 40 42 43 44 44 45 45 46 46 47 47 48 48 49 50 51 51 50 49 48 46 45 45 46 48 50 52 53 54 55 56 57 57 57 58 58 61
50 53 61 70 74 76 78 80 81 81 78 74 71 71 71 68 66 66 64 61 58 54 47 42 41 41 40 39 39 39 39 39 38 37 36 36 37 38 39 39 39 38 37 36 36 36 36 37 37 37 37 38 39 41 42 43 45 46 46 46 47 47 48 48 49 49 49 49 48 48 48 48 49 50 52 53 54 55 55 56 57 57 57 58 58 59 61
44 49 57 63 65 68 71 73 74 76 76 71 66 65 69 70 67 64 63 60 58 55 49 43 42 43 42 40 40 40 39 39 39 38 37 37 37 38 38 39 39 38 37 37 37 37 37 37 38 38 38 39 39 40 41 41 42 42 43 43 44 44 45 46 47 48 49 49 50 50 51 52 53 54 55 55 55 56 56 57 57 58 58 59 59 60 62
45 48 53 55 56 58 62 63 64 67 69 68 62 57 58 64 67 64 61 59 56 51 47 43 42 45 46 45 43 42 41 40 40 39 38 38 38 38 39 39 39 39 38 38 38 38 38 38 38 39 40 41 42 43 43 43 43 43 43 43 44 45 46 47 49 50 51 52 52 53 54 55 55 56 56 56 56 56 57 56 57 57 57 58 59 60 62
47 47 45 45 45 47 49 52 54 56 58 60 60 55 52 54 59 61 60 59 56 50 46 41 39 42 47 49 47 46 45 44 44 43 42 41 41 41 40 40 40 39 40 39 39 40 40 40 41 42 42 43 44 45 46 46 46 46 47 47 48 49 50 51 51 52 53 53 54 55 55 56 56 56 56 56 57 56 56 55 55 55 55 57 58 60 62
48 46 43 41 40 39 39 40 44 46 46 48 53 56 52 49 51 52 51 53 54 52 48 44 39 38 43 48 50 51 51 49 48 47 46 45 44 43 43 43 42 42 42 43 42 42 42 42 43 44 45 46 47 47 48 48 49 50 50 50 51 51 52 52 53 54 54 54 54 54 54 55 55 55 55 55 55 55 54 54 53 54 55 56 57 58 60
45 43 44 44 41 38 36 35 36 39 43 46 51 54 50 44 41 41 39 41 47 48 44 43 42 40 42 46 50 54 55 54 53 51 49 47 47 47 46 46 46 46 46 46 46 45 44 44 45 46 47 48 48 49 49 50 50 50 50 50 51 51 52 53 54 55 55 55 54 54 53 53 53 53 53 53 53 53 52 52 52 52 53 54 55 56 57
43 43 43 42 38 36 36 36 37 39 44 47 48 47 42 36 35 37 37 37 42 44 39 37 40 42 43 47 51 54 56 56 55 53 52 50 49 50 50 50 50 49 49 49 48 48 47 47 47 48 49 50 50 50 50 50 50 50 50 51 51 52 52 53 54 55 55 54 54 53 52 52 51 51 51 51 51 51 51 51 51 51 52 53 54 55 56
40 41 40 37 34 34 35 37 38 38 41 43 41 38 35 33 34 38 39 38 43 46 43 42 45 47 46 47 50 52 55 56 56 55 54 53 52 52 53 53 53 52 52 51 51 50 50 51 51 51 52 52 52 51 51 50 50 50 50 50 51 51 52 52 52 51 51 51 51 52 51 51 50 49 49 49 50 50 51 51 51 51 51 52 53 54 55
39 34 31 30 32 34 34 35 37 39 40 40 38 35 33 34 37 40 41 42 45 47 46 47 50 52 50 50 52 54 55 56 57 58 57 56 56 56 56 56 56 56 55 54 53 53 52 52 53 53 53 52 51 49 48 48 48 48 49 50 51 52 52 51 49 48 47 48 49 50 50 49 48 48 48 48 49 49 50 50 51 51 51 51 52 54 55
33 30 28 27 29 32 31 30 34 40 40 39 39 38 37 37 40 43 45 46 48 48 47 46 49 52 53 54 56 58 58 57 58 60 62 61 59 59 60 60 60 59 58 57 55 54 53 54 54 54 51 48 46 45 45 46 48 49 50 52 53 52 51 50 49 49 48 48 48 48 49 48 48 47 47 47 48 48 48 49 49 49 50 51 52 54 54
30 35 34 30 30 33 32 31 36 42 43 41 41 40 40 42 44 47 50 51 52 53 52 50 50 52 53 54 58 61 60 59 59 61 64 64 63 63 63 63 62 62 62 60 56 54 54 55 54 51 47 44 44 45 46 47 48 48 49 49 50 50 50 50 50 49 49 49 49 49 49 49 48 48 48 48 48 47 47 48 48 48 50 51 52 53 53
26 32 33 31 31 32 33 35 41 45 45 44 41 39 41 46 47 48 51 53 53 54 56 55 54 54 53 53 56 59 60 60 62 64 65 67 67 66 65 64 64 64 63 60 55 53 54 54 52 48 45 45 46 46 46 46 46 46 46 45 45 46 46 47 47 48 48 49 50 50 51 51 50 50 50 50 50 49 49 49 49 49 50 51 50 50 49
19 23 25 26 27 29 33 39 45 46 45 44 41 37 40 44 43 43 46 47 45 46 49 50 53 56 56 55 56 58 60 62 64 65 65 66 66 66 65 64 64 64 61 56 51 50 50 48 46 44 44 46 47 46 46 46 46 47 46 46 45 44 43 43 43 44 45 46 47 48 48 49 49 49 49 49 49 49 48 48 49 48 48 48 47 46 45
19 20 21 22 25 29 34 42 48 48 44 39 34 30 29 29 27 28 32 35 35 34 33 34 40 48 54 56 58 60 62 63 64 64 63 62 61 61 62 61 59 57 55 51 49 49 47 43 42 42 44 46 46 47 47 47 47 47 47 45 44 42 40 39 39 40 41 41 42 43 44 44 45 46 46 46 46 46 45 45 44 44 44 44 43 43 43
27 25 21 19 22 27 32 41 49 51 44 35 29 24 20 16 13 13 16 23 29 31 29 26 27 33 40 45 48 51 54 56 58 60 59 57 54 54 54 53 51 50 49 50 51 50 47 44 42 43 46 48 48 48 48 47 46 46 46 44 41 39 37 36 37 37 38 39 40 40 41 41 42 43 43 43 42 42 42 41 40 40 41 42 42 41 41
28 28 26 23 21 23 28 37 46 49 44 37 32 28 24 20 14 10 10 15 22 25 26 26 25 25 27 29 32 36 41 46 51 54 55 53 51 50 49 48 47 48 49 50 50 49 48 47 47 48 49 50 49 48 47 46 46 45 44 42 40 38 37 36 36 36 37 38 38 39 39 39 39 40 39 39 39 39 39 38 38 37 38 39 39 39 38
29 30 31 31 27 23 22 28 35 38 35 32 30 28 26 25 24 20 16 15 17 18 20 22 23 23 24 23 23 24 28 33 38 42 44 45 46 46 45 45 45 46 47 48 47 47 48 50 51 51 50 49 49 47 46 45 44 43 42 41 40 38 37 37 36 36 37 37 38 38 38 38 38 38 37 36 36 36 36 36 36 36 35 35 35 35 34
32 33 35 35 33 29 26 24 24 24 24 24 24 24 23 24 25 23 21 20 20 19 19 19 19 20 21 20 19 19 20 22 25 27 29 31 34 36 37 39 40 41 42 43 44 45 47 49 50 50 49 49 48 46 44 43 42 41 41 40 39 38 38 37 36 36 37 37 38 38 38 38 38 38 37 36 36 36 36 36 36 35 35 34 33 33 33
23 25 30 36 39 38 35 31 27 27 28 28 25 23 23 23 23 22 20 21 21 21 20 19 18 18 18 18 19 19 20 21 23 24 26 28 30 32 34 36 37 38 40 41 42 43 45 46 47 48 47 46 44 42 41 40 40 40 39 39 38 38 38 37 37 37 37 37 38 39 39 39 39 38 37 37 37 37 37 37 36 36 36 35 34 34 34
16 16 19 26 32 33 33 33 33 35 37 35 32 30 31 30 28 24 22 21 21 20 19 19 19 18 18 18 18 20 22 23 24 26 27 29 31 33 34 36 37 38 39 40 41 42 44 44 44 44 43 41 40 39 39 39 38 38 38 38 38 38 38 37 37 37 37 37 38 38 39 39 39 39 38 37 37 37 37 37 37 36 37 37 36 35 34
17 18 18 21 23 24 24 25 27 30 32 33 32 32 33 32 29 26 24 24 23 22 20 20 20 20 19 18 18 19 21 22 24 25 26 27 28 29 31 32 33 34 36 37 38 39 40 41 40 40 39 38 38 37 37 37 37 37 37 37 37 37 37 37 36 36 36 36 36 37 37 38 38 38 38 37 37 36 36 36 36 36 36 36 36 36 35
11 14 16 18 19 21 21 22 24 25 27 28 28 28 28 27 26 25 24 25 25 25 24 24 24 24 22 21 20 19 20 22 23 24 25 25 26 27 29 30 31 33 34 36 37 38 39 39 38 38 37 37 36 36 35 35 35 35 35 35 35 36 36 36 35 35 35 35 35 35 36 36 36 37 36 36 35 35 35 34 34 35 35 35 36 36 36
4 5 6 8 10 12 15 18 21 24 25 26 26 26 27 28 27 27 28 28 28 28 29 29 29 28 27 26 25 24 24 25 25 26 26 27 28 29 30 31 32 34 35 36 36 36 36 36 36 35 35 35 34 34 33 33 33 33 33 33 34 34 34 34 34 34 33 33 34 34 34 34 34 35 35 35 34 34 34 33 33 33 33 34 34 35 36
6 5 4 3 2 3 6 8 12 15 17 18 20 22 25 26 26 27 28 28 28 29 29 29 30 30 29 28 28 27 27 27 27 27 27 28 29 29 30 30 31 31 32 32 33 33 33 33 33 33 33 32 32 31 31 31 30 30 30 30 31 32 32 33 33 33 32 32 32 32 33 33 33 33 33 33 33 33 32 32 32 32 32 32 33 33 34
6 6 5 5 4 2 2 3 4 6 8 10 12 14 17 19 20 21 22 23 23 24 24 25 25 25 25 25 25 24 24 24 25 25 25 26 26 27 27 28 29 29 30 31 31 32 32 31 31 31 30 29 29 29 29 29 29 28 28 29 29 30 30 31 31 31 32 31 31 31 31 32 32 32 32 32 32 32 32 32 32 32 32 32 32 32 33
7 7 6 6 6 5 5 4 4 4 4 5 6 7 9 11 12 13 15 17 18 19 20 20 21 20 20 20 20 19 20 20 21 22 23 24 25 25 26 27 27 28 29 29 29 30 30 30 29 29 28 27 27 27 28 28 28 28 28 28 29 29 29 30 30 30 31 31 31 31 31 31 32 32 32 32 33 32 32 32 32 32 33 33 33 34 34
11 10 9 9 9 9 9 9 8 8 8 7 7 7 8 8 9 10 11 12 13 14 15 16 16 17 17 17 17 17 18 19 19 20 21 23 23 24 25 25 26 26 27 27 28 28 28 28 28 27 27 26 26 26 27 27 28 28 28 29 29 29 29 30 30 30 31 31 31 31 32 32 32 33 33 33 33 34 34 34 33 33 34 34 35 35 36
14 13 13 12 12 12 12 12 12 12 12 11 11 11 12 12 12 12 12 13 13 13 14 14 14 15 15 15 16 17 17 18 19 20 21 22 22 23 23 24 24 25 25 26 26 26 26 26 26 26 26 26 26 26 27 27 28 28 29 29 30 30 30 31 31 31 32 32 32 32 33 33 33 34 34 34 35 35 35 36 36 36 36 36 37 37 37
Wind_Direction
219 220 222 222 222 224 226 228 229 231 232 232 232 232 232 231 231 229 223 223 222 207 192 190 198 207 209 209 209 206 205 208 208 208 206 204 206 207 208 210 213 213 214 215 218 222 226 234 241 244 243 243 246 249 250 249 246 242 239 237 235 233 233 233 230 229 231 236 241 245 249 250 250 248 246 243 241 241 242 243 243 244 245 245 245 243 244
218 219 220 222 222 224 226 227 229 231 232 232 233 233 232 233 234 230 224 225 223 212 204 204 209 214 217 217 215 210 207 207 210 212 209 206 206 207 209 212 214 214 214 215 217 221 227 233 240 245 245 243 245 250 253 253 250 246 241 237 235 234 234 231 227 228 232 237 241 244 244 242 239 237 234 231 230 230 232 234 237 240 241 242 242 243 244
218 218 219 221 222 223 225 227 228 230 231 231 233 233 232 233 233 229 225 226 224 218 216 217 215 215 219 220 218 217 213 209 209 213 213 211 209 210 213 216 217 217 216 215 216 219 225 232 238 243 244 242 243 247 251 254 253 247 241 237 234 233 231 228 226 229 234 238 240 240 237 234 231 227 222 215 212 211 213 218 225 233 239 243 245 245 246
218 219 219 220 221 222 223 225 226 228 230 231 232 233 232 233 233 230 227 228 226 222 220 220 218 217 219 221 221 222 222 219 215 214 217 218 216 216 219 221 222 221 218 217 216 218 223 228 234 241 243 242 243 246 248 250 250 244 238 235 234 232 227 224 225 229 233 236 236 235 233 230 227 224 220 213 207 206 207 213 223 233 240 248 252 251 251
217 219 218 219 221 222 222 223 225 228 229 230 232 232 232 233 233 229 228 229 228 225 222 220 220 220 220 222 224 224 225 225 224 221 219 221 223 223 225 227 228 226 222 219 217 217 221 226 231 238 242 242 243 245 245 243 241 238 234 233 232 229 224 222 224 227 230 232 232 232 232 231 229 229 228 225 220 219 220 228 237 242 245 250 255 258 260
217 219 219 218 220 222 222 222 223 226 229 229 231 232 232 232 232 229 229 229 227 226 224 221 221 224 224 224 227 228 227 227 226 225 224 224 226 227 228 230 232 230 227 224 220 218 220 224 229 236 241 241 239 241 243 242 240 237 233 229 225 221 220 221 224 226 228 230 232 232 232 232 233 236 238 237 236 237 240 246 253 257 259 259 257 258 261
217 219 220 219 220 222 223 222 221 223 227 228 230 231 231 231 231 230 230 228 224 225 227 224 223 227 226 225 227 230 232 232 230 228 228 228 229 229 230 231 232 232 231 229 224 221 221 224 227 234 240 240 237 241 244 244 241 236 230 224 219 217 219 222 225 227 229 231 233 233 234 235 237 240 244 246 248 251 255 258 262 264 265 264 263 263 264
218 219 220 220 220 221 222 223 221 221 225 227 229 230 230 230 231 231 230 228 223 225 229 227 225 229 229 227 228 231 234 237 237 233 231 232 233 234 233 233 233 232 232 231 229 226 225 224 225 230 236 238 238 243 247 244 241 237 232 226 222 222 225 227 228 229 231 233 235 235 236 238 240 244 250 253 256 258 259 261 263 265 266 267 267 266 265
218 219 220 220 220 221 222 223 223 221 222 226 228 230 230 230 231 231 231 228 223 224 229 229 227 231 233 230 229 231 235 239 240 239 236 234 234 236 236 235 235 234 234 233 232 230 228 225 224 227 232 235 237 241 246 246 242 238 236 232 230 231 232 233 233 234 234 233 235 236 239 241 244 249 252 255 256 258 260 262 263 263 264 265 265 263 262
219 219 220 220 220 221 222 223 224 222 222 224 227 229 230 231 231 232 232 230 226 225 229 230 228 231 233 232 229 231 236 239 241 241 241 239 237 236 236 235 236 239 239 237 235 232 230 226 225 226 231 235 236 238 243 246 243 239 238 238 237 237 238 239 239 238 237 236 235 236 238 241 244 247 250 253 256 258 261 262 262 261 260 259 260 261 262
220 220 220 220 220 221 221 223 224 224 222 223 225 228 230 231 231 232 233 233 230 228 229 230 229 230 232 232 229 230 235 239 241 241 243 243 241 239 237 236 236 239 241 241 238 235 232 229 226 226 230 235 236 235 239 242 242 240 240 240 240 241 242 241 240 239 239 240 241 242 242 242 242 244 247 249 252 254 255 256 256 255 254 252 253 256 258
220 221 221 221 220 221 222 222 224 224 223 223 225 227 229 231 231 231 233 234 232 230 230 231 230 231 233 232 228 229 234 238 240 242 244 246 245 243 240 237 237 237 238 240 239 237 234 230 226 225 229 233 235 236 238 241 243 243 244 244 246 246 245 245 244 245 247 247 248 249 248 245 243 244 245 248 251 252 252 253 253 253 253 252 252 253 255
221 221 222 222 221 221 221 223 223 224 224 224 225 227 229 231 231 231 232 235 234 231 230 231 231 232 234 233 230 230 232 235 238 240 244 247 248 246 243 239 237 237 236 237 238 237 234 229 225 223 226 231 235 238 240 242 244 245 246 248 252 254 253 250 249 251 253 251 248 248 247 245 244 245 248 250 253 255 257 258 257 257 257 257 257 257 259
221 222 222 223 222 221 222 223 224 224 224 225 226 227 228 230 231 231 231 233 235 234 232 232 233 233 234 233 230 230 233 235 236 237 240 244 247 247 245 240 237 236 235 235 235 235 234 230 224 220 222 228 233 236 241 244 245 246 247 250 256 261 262 260 257 257 259 256 252 251 252 250 250 251 254 255 256 259 264 265 263 263 264 265 266 265 265
221 222 223 223 223 222 222 223 224 225 225 226 226 227 228 229 231 232 231 230 232 235 234 233 233 234 234 232 231 230 233 235 236 237 238 240 243 245 244 241 237 235 234 234 233 233 234 232 226 220 220 225 230 234 239 243 245 247 248 252 258 261 262 262 261 261 262 262 259 259 261 262 261 261 263 263 260 260 264 266 265 265 268 271 273 274 273
221 222 222 223 223 223 223 223 224 226 226 226 227 228 229 229 229 231 232 229 229 233 235 234 234 234 233 232 231 230 231 234 237 238 238 239 240 241 242 240 237 235 233 233 233 232 232 232 229 224 221 223 228 232 236 239 241 243 246 250 253 254 255 257 259 260 261 260 260 262 264 265 265 265 266 266 264 262 264 266 266 268 270 272 274 276 276
221 221 222 222 222 222 223 222 222 225 227 227 228 229 230 230 229 230 232 230 228 231 234 235 235 234 233 232 232 232 231 233 236 238 239 238 238 240 240 239 237 236 233 233 233 233 232 231 230 228 226 225 227 231 234 237 239 241 244 246 247 249 251 253 256 258 259 258 257 258 260 262 265 267 268 269 269 268 268 268 268 269 269 271 273 275 275
222 222 222 223 223 223 224 223 222 223 226 228 229 230 231 231 230 230 231 231 229 229 232 234 235 235 235 233 232 232 232 233 235 237 239 238 238 238 239 238 236 235 234 234 235 235 234 233 232 232 231 230 230 232 234 237 238 240 243 245 246 247 249 251 252 254 255 255 255 256 259 262 265 267 270 271 272 272 271 269 267 267 267 269 271 272 273
223 222 221 223 223 224 224 224 223 223 226 228 230 230 231 231 232 231 231 231 230 229 231 234 236 237 237 235 234 234 234 233 234 236 238 239 238 237 237 237 236 234 233 234 235 236 237 236 235 235 235 234 234 235 235 236 238 240 242 244 245 247 248 248 249 250 252 253 254 256 260 263 265 268 271 273 273 272 270 267 265 265 266 267 267 269 270
224 223 221 222 224 224 225 225 224 224 225 227 229 230 231 232 232 232 232 232 230 229 229 233 236 238 238 237 236 235 235 234 235 235 236 239 240 238 236 236 235 235 234 234 234 236 237 237 237 237 237 237 239 239 239 238 239 241 242 244 244 245 246 246 247 248 251 253 256 259 263 265 268 271 273 273 273 272 270 268 268 268 269 268 268 269 269
226 224 223 223 224 225 225 226 226 226 226 227 229 230 232 233 233 233 234 234 231 228 228 231 235 237 239 239 237 237 237 236 236 236 236 237 239 239 238 236 234 234 235 234 233 233 235 236 237 237 238 238 240 241 242 243 243 243 244 245 246 247 247 248 249 251 254 258 261 263 266 268 270 271 270 269 270 270 270 271 272 272 273 273 273 273 273
228 226 225 225 226 226 226 226 227 227 226 227 229 230 232 234 234 234 235 236 234 229 226 228 232 235 238 240 240 239 240 238 237 237 236 236 237 238 239 238 236 235 235 235 234 232 233 235 237 238 239 239 240 241 243 245 246 247 248 250 251 251 252 253 254 257 259 262 264 266 268 269 269 267 266 266 268 269 271 272 273 274 275 276 276 276 276
228 227 227 228 227 227 226 226 227 228 228 228 229 230 231 234 234 234 236 238 237 232 226 226 230 233 236 239 241 241 242 241 239 238 238 237 237 237 238 239 239 238 237 236 235 234 234 236 237 239 240 240 241 243 244 246 248 249 250 251 253 254 256 257 259 261 262 264 266 267 268 267 266 265 266 267 269 271 272 273 275 276 276 277 277 277 276
227 226 227 229 228 227 227 227 228 229 229 229 230 230 231 233 235 235 236 238 239 237 230 224 227 230 233 236 239 242 242 243 242 240 239 238 237 236 236 237 238 238 238 238 237 236 237 237 238 239 241 242 243 245 247 248 250 251 252 253 255 256 258 260 261 263 264 265 265 265 264 263 264 265 268 269 270 272 273 275 276 276 276 277 277 276 276
224 223 225 227 228 228 228 228 229 230 230 230 231 231 232 234 235 236 237 238 240 240 235 226 223 226 229 231 234 238 240 242 242 241 240 239 237 236 235 235 236 237 237 238 239 238 237 238 239 240 242 243 244 246 247 248 250 251 253 254 256 257 259 260 261 262 262 263 263 264 264 264 266 267 268 270 272 273 275 276 277 276 276 276 276 276 276
211 216 221 224 225 226 227 228 229 231 231 231 232 232 232 233 234 236 237 238 240 242 240 231 222 222 224 226 229 233 236 239 240 240 239 239 238 237 235 235 236 237 238 238 238 239 238 238 239 240 242 243 244 245 246 248 249 251 252 254 256 257 259 260 261 262 263 264 264 265 265 266 267 268 270 271 273 275 276 277 277 277 277 276 276 276 277
199 206 214 218 220 223 225 226 227 229 230 230 231 233 234 234 235 236 238 239 240 242 242 237 228 223 224 225 226 229 232 235 236 237 238 239 239 238 237 237 237 238 239 238 238 238 238 239 240 240 240 242 243 244 246 248 250 252 254 256 258 260 261 262 262 262 263 263 264 264 265 266 267 269 271 272 273 275 275 276 276 276 276 276 277 277 277
191 196 203 205 208 214 218 221 224 227 228 229 231 234 236 236 236 237 238 240 240 240 242 242 234 226 226 228 228 229 232 233 235 237 238 239 239 239 239 239 238 238 239 239 238 238 238 239 240 240 241 242 243 244 246 249 251 254 256 258 260 261 262 263 263 263 264 264 264 265 266 267 269 270 271 272 273 274 275 275 275 276 276 277 277 278 279
183 182 182 182 188 197 204 212 219 222 222 225 230 232 235 237 238 238 240 243 244 242 242 243 238 229 228 230 230 231 233 234 235 237 238 238 240 241 241 241 240 239 238 238 237 237 236 236 238 240 242 243 244 246 247 249 251 254 257 259 261 262 264 265 266 266 267 267 267 267 268 269 270 271 271 272 274 275 275 275 276 276 277 277 278 279 281
168 168 169 171 177 184 189 199 209 211 212 218 225 229 232 235 237 237 237 241 246 245 242 240 238 232 228 228 228 230 232 233 233 234 234 235 237 240 241 240 239 236 235 234 235 236 236 237 238 241 243 245 247 248 250 252 254 257 260 263 264 266 268 269 270 271 270 269 268 268 269 269 271 272 272 274 275 276 276 277 277 278 278 279 280 282 282
159 163 166 168 173 178 183 191 199 202 205 212 219 225 228 228 228 230 229 230 236 238 234 229 230 228 225 224 224 226 229 232 232 231 231 231 233 236 238 238 237 234 232 233 234 236 238 239 240 243 245 247 249 251 253 256 260 262 265 267 268 270 272 273 274 274 273 271 269 268 269 271 273 273 274 275 275 276 277 278 279 279 279 280 282 283 284
160 163 163 163 171 180 185 189 192 197 204 210 212 216 218 214 214 221 223 221 225 228 226 223 223 224 222 223 225 225 227 230 232 232 231 230 230 232 235 236 236 234 232 233 234 235 237 239 242 244 246 248 250 253 257 260 263 265 267 268 270 272 273 274 274 274 273 272 270 270 272 274 274 274 274 275 275 276 277 277 278 278 279 280 282 284 286
156 158 161 165 172 179 185 188 191 194 198 201 201 201 202 203 207 213 216 215 217 219 220 220 222 223 223 223 225 225 225 227 229 231 230 229 228 230 232 234 235 233 232 232 233 234 236 239 242 244 247 250 253 257 260 262 264 265 266 267 269 271 272 271 272 273 275 275 274 273 274 274 274 273 274 274 274 275 275 276 276 277 278 280 282 284 287
149 150 165 177 178 178 181 187 192 193 191 190 191 190 192 200 209 213 213 212 213 215 216 218 221 223 224 224 223 223 224 225 227 228 228 227 227 229 231 233 233 232 231 229 231 233 236 239 242 245 249 253 256 258 260 262 264 265 267 268 269 269 269 268 269 272 274 275 275 275 274 273 273 273 273 273 273 273 273 274 276 277 279 281 283 285 287
144 149 165 180 184 183 184 185 188 190 189 187 189 192 194 201 209 212 211 212 215 216 216 218 220 221 221 222 222 222 223 225 227 228 228 226 226 228 231 232 234 233 230 227 227 231 235 238 242 247 250 253 255 257 260 263 266 268 269 269 269 268 267 266 268 269 270 271 271 272 272 273 273 273 273 272 272 273 273 274 276 279 281 283 284 285 287
150 158 170 180 186 191 193 189 187 188 189 189 193 197 196 196 197 198 198 202 206 207 207 211 217 221 220 220 220 221 224 226 228 228 227 224 224 227 230 231 233 232 228 224 226 232 237 240 244 247 249 251 254 258 261 265 267 268 270 271 270 269 268 267 267 267 268 268 268 269 270 271 273 274 273 272 273 273 274 275 277 279 281 283 285 286 287
158 172 181 189 194 197 196 192 189 189 191 194 195 193 187 185 187 188 188 190 193 193 192 197 206 213 218 220 221 222 223 225 226 225 223 220 220 223 227 230 231 229 224 223 229 237 239 240 243 245 247 251 256 259 262 265 267 269 271 273 273 272 271 269 269 268 268 268 269 269 270 271 272 273 273 273 273 274 275 276 278 279 281 282 284 286 288
151 168 185 197 200 199 196 194 194 193 191 187 185 181 177 174 177 184 189 191 191 191 189 188 192 199 206 212 215 216 217 219 220 220 220 219 219 221 226 229 229 226 223 227 235 239 238 239 243 246 249 253 257 260 264 268 269 269 271 273 273 272 271 271 271 271 271 270 271 271 271 271 272 272 273 273 274 275 276 277 278 279 280 282 283 286 288
143 153 167 185 198 203 202 199 197 196 192 188 192 203 207 196 180 181 194 198 197 198 200 200 195 193 195 198 202 204 206 209 212 215 218 220 220 221 223 225 226 227 230 237 241 241 241 242 246 248 250 253 257 262 267 270 270 270 272 272 271 269 269 270 270 270 270 270 270 270 270 270 271 272 272 273 274 274 275 276 276 277 279 281 283 285 287
148 151 152 157 174 197 208 208 206 205 206 209 219 231 239 237 233 236 227 208 201 201 203 203 205 205 203 200 200 200 201 204 208 212 216 220 222 222 223 226 231 237 242 245 246 245 243 243 245 248 250 254 259 265 268 269 269 270 270 270 268 267 267 267 267 266 266 267 267 268 269 270 270 271 273 274 275 275 275 275 276 277 278 280 283 285 286
164 159 155 153 155 167 187 203 211 217 223 231 239 244 248 251 254 254 244 225 215 210 205 202 204 209 213 212 211 208 206 208 211 214 218 222 225 226 229 233 238 243 245 245 246 244 242 241 244 247 251 256 262 265 267 266 266 266 266 265 266 266 266 265 265 265 265 266 267 268 269 270 271 272 273 273 274 275 275 275 275 276 277 278 281 283 284
149 149 150 152 152 153 161 178 198 212 218 221 225 230 237 246 251 250 242 231 222 215 211 208 207 208 211 215 218 216 214 214 215 218 221 224 226 228 230 233 236 238 240 241 242 241 240 242 245 249 254 259 262 263 262 261 261 261 261 262 262 263 263 264 265 265 265 267 268 268 269 270 271 271 272 272 272 273 273 273 273 274 275 276 278 279 279
131 136 142 146 149 154 160 168 177 184 187 189 195 205 212 218 225 228 226 221 216 215 216 218 217 216 217 220 224 225 225 223 221 221 222 224 225 228 230 233 235 238 240 241 242 242 243 245 248 251 255 258 259 259 258 258 258 259 260 261 261 262 263 263 264 265 266 267 268 269 270 271 271 272 272 272 272 272 273 273 274 274 274 275 276 276 276
143 150 153 151 151 156 163 167 169 172 175 179 186 192 193 194 199 205 208 209 209 212 214 216 218 221 224 227 231 233 232 230 229 228 228 228 230 232 235 238 240 242 243 244 246 247 248 249 251 253 255 256 257 257 257 257 258 260 261 262 263 264 265 265 265 266 267 268 269 271 272 272 273 274 274 273 273 273 272 273 273 274 275 275 275 274 273
150 161 168 166 163 164 170 173 174 174 175 179 184 187 189 191 196 203 210 213 215 217 219 220 221 225 230 235 238 238 237 237 237 237 237 238 239 240 241 244 245 247 248 249 251 252 252 253 253 254 254 255 257 258 259 260 262 264 265 266 267 268 268 269 269 268 269 269 270 271 272 272 273 273 274 274 274 274 273 273 273 273 273 273 273 271 270
146 158 165 168 169 174 182 190 192 192 193 194 196 197 200 203 208 214 220 224 225 226 228 229 231 235 239 243 243 241 241 241 242 243 244 247 249 250 251 252 253 253 254 254 253 254 254 254 254 255 255 256 257 258 260 262 264 266 267 269 270 270 271 271 270 270 269 270 269 270 270 271 271 272 272 273 273 273 272 272 272 272 271 270 270 270 269
102 137 153 161 170 180 190 196 200 202 204 206 207 209 213 218 221 223 225 228 229 229 229 229 231 235 239 242 242 241 240 240 241 243 245 247 248 250 251 252 252 253 253 253 253 253 254 254 254 255 255 256 257 258 259 260 262 264 266 268 269 270 270 271 271 270 270 270 269 270 270 270 271 271 272 272 272 272 272 271 270 270 269 269 268 268 267
36 39 49 69 122 194 209 213 212 212 212 213 214 216 218 220 222 223 224 225 227 227 227 227 228 229 230 232 234 235 235 236 238 239 240 241 242 244 245 247 248 250 251 252 252 253 253 253 253 253 254 255 256 258 259 260 261 262 263 264 266 267 269 269 270 270 270 270 270 270 271 271 271 272 272 272 272 272 272 272 272 271 270 269 268 267 267
5 3 1 2 360 337 287 258 241 229 223 222 221 219 218 219 220 220 220 221 223 224 225 226 227 227 227 228 229 230 232 234 236 237 238 240 241 242 244 245 247 249 249 250 251 251 251 252 252 253 254 256 257 259 261 262 262 263 263 263 264 265 266 268 269 269 270 270 270 270 270 270 271 271 271 271 272 272 272 272 273 272 272 272 271 270 269
324 318 313 311 309 304 295 287 281 273 258 244 236 231 228 227 226 223 222 222 223 224 226 228 230 231 232 232 232 234 236 236 238 240 241 242 243 244 245 246 247 247 248 249 250 251 251 252 253 253 254 256 257 259 262 263 264 265 265 265 265 265 266 266 267 268 269 270 271 271 271 271 271 271 271 271 271 271 271 271 271 271 272 272 271 271 271
306 300 296 291 287 285 283 281 280 278 275 271 268 262 255 249 245 242 238 235 233 232 232 233 235 236 238 239 240 241 241 241 242 243 243 243 244 245 245 245 245 246 246 247 248 249 250 251 252 252 253 254 256 258 260 261 263 265 265 266 267 267 268 268 268 268 269 270 270 271 272 272 272 272 273 273 272 272 273 272 272 271 271 271 270 270 270
301 296 292 288 283 279 278 276 275 274 272 271 271 270 268 266 264 260 255 250 246 244 243 242 242 243 245 247 248 248 248 248 248 248 247 247 246 246 246 246 246 246 246 247 248 248 249 251 253 254 256 257 258 259 260 261 262 264 265 266 267 268 269 270 270 270 271 271 271 271 272 272 273 273 273 274 274 274 274 274 273 273 272 272 271 271 270
Height
5737 5742 5746 5750 5756 5759 5762 5766 5769 5772 5778 5784 5788 5791 5796 5801 5804 5809 5816 5819 5821 5825 5828 5829 5831 5832 5833 5833 5835 5837 5839 5840 5842 5844 5846 5848 5850 5852 5854 5856 5858 5860 5862 5864 5866 5868 5870 5871 5872 5874 5876 5878 5879 5880 5881 5882 5884 5885 5886 5888 5889 5890 5891 5893 5894 5895 5895 5896 5897 5897 5898 5899 5899 5900 5900 5901 5901 5901 5902 5903 5903 5904 5905 5906 5906 5907 5908
5730 5735 5740 5744 5750 5753 5757 5761 5764 5768 5774 5779 5782 5786 5793 5796 5799 5807 5814 5815 5817 5822 5824 5826 5829 5829 5830 5831 5833 5835 5837 5838 5840 5842 5843 5845 5846 5847 5849 5851 5853 5856 5859 5861 5863 5865 5867 5869 5870 5872 5874 5876 5877 5878 5879 5879 5881 5882 5884 5886 5887 5888 5889 5891 5892 5892 5892 5894 5894 5895 5896 5897 5897 5898 5898 5898 5899 5900 5900 5901 5901 5902 5903 5903 5904 5905 5906
5724 5730 5734 5738 5743 5748 5751 5755 5759 5763 5768 5773 5776 5781 5787 5791 5794 5803 5809 5809 5812 5818 5821 5824 5826 5826 5827 5829 5831 5832 5833 5835 5837 5838 5840 5841 5842 5844 5846 5848 5850 5853 5855 5858 5860 5862 5864 5866 5867 5869 5871 5873 5874 5875 5876 5877 5878 5879 5881 5883 5884 5885 5887 5888 5889 5889 5890 5891 5892 5894 5894 5895 5896 5896 5896 5897 5898 5898 5899 5899 5900 5901 5901 5902 5903 5903 5904
5718 5723 5728 5732 5736 5740 5743 5747 5753 5758 5763 5767 5771 5775 5782 5785 5791 5800 5803 5804 5808 5814 5818 5821 5822 5823 5825 5827 5828 5830 5831 5832 5834 5835 5838 5840 5841 5842 5843 5845 5848 5850 5853 5855 5857 5859 5860 5862 5864 5865 5867 5869 5871 5872 5874 5875 5875 5876 5877 5880 5881 5883 5884 5885 5886 5887 5888 5889 5890 5892 5892 5893 5894 5895 5895 5896 5897 5897 5898 5898 5898 5899 5900 5901 5901 5902 5902
5711 5714 5720 5726 5729 5732 5736 5743 5750 5754 5757 5762 5766 5770 5776 5781 5786 5794 5797 5798 5805 5812 5816 5818 5818 5820 5823 5824 5826 5827 5828 5830 5831 5833 5836 5837 5839 5840 5842 5843 5846 5848 5850 5852 5854 5856 5858 5859 5860 5862 5863 5866 5868 5869 5870 5871 5871 5872 5874 5877 5878 5880 5881 5882 5883 5885 5886 5887 5888 5890 5890 5891 5892 5892 5893 5894 5895 5895 5896 5896 5897 5898 5899 5899 5900 5900 5901
5703 5705 5711 5719 5722 5725 5731 5740 5746 5749 5752 5757 5761 5765 5771 5775 5781 5787 5790 5795 5804 5809 5810 5813 5816 5818 5820 5822 5822 5823 5824 5826 5828 5830 5833 5834 5836 5838 5839 5841 5843 5845 5847 5849 5851 5853 5855 5856 5858 5858 5860 5863 5865 5866 5866 5867 5868 5870 5872 5873 5875 5877 5878 5879 5881 5882 5883 5885 5886 5887 5888 5888 5889 5890 5891 5892 5892 5893 5893 5894 5895 5896 5897 5897 5898 5898 5899
5694 5698 5705 5712 5716 5720 5726 5733 5739 5743 5747 5751 5754 5759 5765 5769 5775 5781 5785 5792 5801 5804 5804 5808 5813 5815 5816 5818 5819 5820 5821 5823 5825 5827 5829 5831 5833 5834 5836 5838 5840 5842 5844 5846 5848 5850 5852 5853 5855 5856 5858 5861 5862 5863 5864 5865 5866 5868 5869 5870 5872 5874 5875 5877 5878 5879 5881 5882 5883 5884 5885 5885 5886 5887 5888 5889 5890 5890 5891 5892 5893 5893 5894 5895 5895 5896 5896
5687 5691 5698 5705 5711 5715 5720 5726 5732 5738 5741 5744 5748 5753 5758 5764 5770 5775 5780 5788 5796 5799 5799 5804 5809 5810 5811 5814 5816 5818 5819 5821 5822 5825 5826 5828 5830 5831 5833 5835 5837 5839 5841 5843 5845 5847 5848 5850 5852 5854 5855 5857 5859 5860 5862 5863 5864 5865 5867 5868 5870 5872 5873 5874 5876 5877 5878 5880 5880 5881 5882 5883 5884 5885 5885 5886 5887 5888 5888 5889 5890 5890 5891 5892 5892 5893 5893
5680 5685 5691 5698 5704 5710 5716 5721 5726 5731 5735 5738 5743 5748 5753 5759 5765 5769 5775 5783 5791 5794 5795 5799 5803 5805 5806 5809 5813 5815 5817 5818 5820 5822 5824 5825 5827 5828 5830 5832 5834 5836 5837 5839 5842 5843 5845 5847 5849 5851 5853 5854 5856 5858 5859 5860 5862 5863 5865 5867 5869 5870 5872 5873 5874 5875 5876 5876 5877 5878 5879 5880 5881 5882 5883 5883 5884 5884 5885 5886 5886 5887 5888 5888 5889 5889 5889
5673 5678 5683 5690 5697 5705 5712 5715 5718 5723 5730 5734 5739 5743 5748 5753 5759 5764 5769 5777 5784 5789 5790 5793 5797 5799 5800 5804 5809 5812 5813 5815 5817 5819 5821 5822 5824 5825 5827 5829 5831 5833 5834 5836 5838 5840 5842 5844 5846 5848 5849 5851 5853 5856 5857 5858 5859 5861 5863 5865 5867 5869 5870 5871 5872 5872 5873 5873 5874 5875 5876 5877 5878 5879 5879 5880 5880 5881 5881 5882 5883 5883 5884 5884 5884 5884 5885
5664 5670 5677 5684 5692 5699 5704 5707 5710 5717 5725 5730 5734 5738 5743 5747 5753 5759 5764 5770 5777 5783 5785 5788 5791 5793 5795 5800 5806 5809 5809 5810 5812 5815 5817 5819 5820 5822 5824 5826 5828 5830 5831 5833 5835 5837 5839 5841 5843 5845 5846 5848 5850 5853 5854 5855 5856 5858 5861 5863 5865 5866 5867 5868 5868 5869 5869 5870 5871 5872 5873 5874 5874 5875 5876 5876 5876 5877 5877 5877 5878 5878 5878 5879 5880 5880 5880
5658 5664 5670 5677 5684 5690 5695 5699 5704 5711 5719 5724 5729 5734 5737 5742 5748 5754 5759 5763 5770 5776 5780 5783 5786 5788 5791 5796 5801 5804 5804 5805 5807 5810 5812 5814 5816 5819 5821 5823 5825 5826 5828 5830 5831 5833 5835 5837 5840 5842 5844 5845 5847 5849 5851 5852 5854 5856 5858 5860 5861 5863 5864 5865 5865 5866 5866 5867 5868 5869 5870 5870 5870 5871 5872 5872 5872 5872 5873 5873 5873 5873 5873 5874 5875 5875 5875
5651 5657 5662 5668 5675 5682 5688 5693 5699 5706 5713 5719 5724 5728 5732 5736 5742 5749 5754 5758 5764 5770 5775 5777 5781 5783 5786 5791 5796 5798 5799 5800 5802 5805 5808 5810 5812 5815 5817 5819 5821 5822 5824 5826 5828 5830 5832 5834 5836 5838 5841 5842 5844 5846 5848 5849 5851 5853 5854 5856 5857 5858 5860 5861 5862 5863 5864 5864 5865 5866 5866 5866 5867 5867 5868 5868 5868 5868 5869 5869 5869 5869 5869 5870 5870 5870 5871
5644 5650 5656 5661 5668 5675 5682 5687 5694 5701 5707 5713 5717 5722 5727 5732 5737 5744 5749 5753 5758 5763 5768 5772 5775 5778 5781 5786 5791 5793 5794 5795 5798 5800 5803 5806 5808 5811 5813 5815 5817 5819 5820 5823 5824 5826 5828 5830 5832 5835 5837 5839 5841 5843 5844 5846 5848 5849 5851 5852 5853 5854 5856 5857 5858 5859 5860 5861 5862 5862 5862 5863 5864 5864 5865 5865 5864 5865 5865 5865 5865 5865 5865 5865 5865 5865 5866
5638 5644 5648 5653 5660 5668 5676 5682 5689 5695 5701 5706 5711 5717 5722 5727 5732 5738 5743 5749 5753 5757 5762 5766 5769 5773 5777 5781 5785 5788 5789 5791 5794 5796 5798 5801 5804 5807 5809 5811 5813 5815 5817 5819 5821 5823 5824 5826 5829 5831 5833 5836 5838 5840 5841 5843 5845 5847 5848 5849 5850 5851 5852 5853 5853 5855 5856 5856 5857 5858 5858 5859 5860 5860 5861 5861 5860 5861 5861 5861 5860 5860 5860 5860 5860 5860 5860
5629 5634 5639 5645 5654 5662 5669 5677 5686 5690 5694 5700 5707 5711 5715 5721 5727 5732 5736 5743 5749 5752 5755 5760 5764 5768 5772 5776 5779 5783 5785 5787 5789 5792 5794 5797 5799 5802 5805 5807 5809 5811 5813 5815 5817 5819 5821 5823 5825 5827 5830 5832 5834 5836 5838 5840 5842 5843 5845 5846 5847 5848 5848 5849 5850 5851 5851 5852 5853 5854 5854 5855 5855 5856 5857 5856 5856 5856 5856 5856 5855 5855 5855 5855 5854 5854 5854
5619 5624 5632 5640 5649 5657 5663 5671 5679 5683 5686 5694 5701 5704 5708 5715 5722 5727 5731 5738 5744 5747 5750 5755 5758 5762 5767 5770 5774 5777 5780 5782 5785 5787 5790 5792 5795 5798 5800 5803 5805 5807 5809 5812 5814 5816 5818 5820 5822 5824 5826 5828 5830 5832 5834 5836 5838 5839 5840 5841 5843 5844 5845 5845 5846 5847 5847 5848 5849 5850 5850 5851 5851 5851 5852 5851 5851 5851 5850 5850 5850 5850 5850 5849 5848 5848 5848
5611 5619 5629 5637 5644 5651 5654 5660 5670 5677 5682 5689 5694 5697 5703 5709 5715 5721 5727 5732 5739 5743 5746 5749 5753 5757 5761 5765 5769 5772 5776 5778 5780 5783 5786 5788 5790 5793 5796 5798 5801 5803 5805 5808 5810 5812 5814 5816 5818 5820 5822 5823 5825 5827 5829 5831 5833 5835 5836 5837 5838 5839 5840 5841 5842 5843 5843 5844 5845 5845 5845 5846 5846 5846 5846 5846 5845 5845 5844 5845 5845 5845 5845 5844 5842 5841 5841
5605 5612 5624 5631 5636 5641 5646 5654 5666 5675 5679 5683 5687 5691 5697 5703 5710 5716 5722 5727 5734 5739 5743 5745 5748 5752 5756 5760 5764 5767 5771 5774 5776 5779 5781 5783 5786 5789 5791 5794 5796 5799 5801 5803 5806 5808 5810 5812 5814 5816 5818 5819 5821 5823 5825 5827 5828 5829 5831 5832 5833 5834 5836 5837 5837 5838 5839 5839 5840 5840 5840 5840 5840 5840 5840 5840 5839 5839 5839 5839 5839 5838 5838 5837 5836 5835 5835
5599 5606 5617 5625 5630 5635 5643 5652 5661 5668 5673 5677 5681 5686 5692 5698 5704 5711 5716 5722 5729 5735 5739 5742 5744 5747 5750 5755 5759 5763 5766 5769 5772 5774 5777 5779 5781 5784 5787 5789 5792 5794 5797 5799 5801 5803 5805 5807 5809 5811 5813 5815 5817 5818 5820 5821 5823 5824 5826 5827 5828 5829 5831 5832 5833 5833 5834 5834 5835 5835 5835 5835 5834 5834 5834 5833 5833 5833 5833 5832 5832 5831 5831 5830 5830 5829 5827
5593 5602 5614 5622 5625 5629 5638 5646 5652 5658 5666 5672 5678 5683 5688 5693 5699 5705 5710 5715 5723 5730 5735 5738 5740 5743 5746 5749 5754 5757 5760 5764 5767 5769 5772 5775 5777 5779 5782 5785 5788 5790 5792 5794 5796 5798 5801 5803 5805 5807 5808 5810 5812 5813 5815 5816 5818 5819 5820 5822 5823 5824 5825 5826 5827 5828 5828 5829 5829 5829 5829 5829 5828 5828 5827 5826 5826 5826 5826 5826 5825 5824 5823 5823 5823 5821 5819
5589 5600 5610 5615 5618 5624 5633 5641 5645 5651 5660 5668 5673 5679 5683 5688 5694 5700 5705 5709 5717 5725 5731 5733 5735 5738 5741 5745 5749 5752 5755 5758 5762 5764 5767 5770 5772 5774 5777 5780 5783 5785 5788 5790 5792 5794 5796 5798 5800 5802 5804 5805 5807 5808 5810 5812 5813 5814 5816 5817 5818 5819 5820 5821 5821 5822 5822 5822 5822 5822 5822 5822 5822 5821 5821 5820 5820 5820 5820 5819 5818 5816 5816 5815 5814 5813 5810
5587 5598 5605 5608 5612 5619 5628 5634 5640 5647 5655 5662 5668 5674 5679 5684 5689 5695 5700 5704 5710 5719 5726 5728 5731 5734 5737 5740 5743 5747 5750 5753 5756 5759 5763 5765 5768 5770 5773 5775 5778 5780 5783 5785 5787 5789 5791 5793 5795 5797 5799 5800 5802 5804 5805 5807 5808 5809 5810 5811 5812 5813 5814 5814 5815 5815 5815 5815 5815 5815 5815 5815 5815 5815 5814 5814 5814 5813 5812 5812 5811 5809 5808 5807 5806 5804 5801
5586 5594 5598 5601 5607 5616 5623 5631 5637 5644 5651 5658 5664 5670 5676 5680 5684 5690 5696 5699 5704 5712 5720 5724 5727 5730 5733 5736 5739 5742 5746 5749 5752 5755 5758 5761 5764 5766 5768 5771 5773 5775 5777 5780 5782 5784 5787 5788 5790 5792 5794 5795 5797 5799 5800 5802 5803 5804 5805 5806 5807 5807 5808 5808 5808 5808 5808 5808 5808 5809 5809 5808 5808 5808 5807 5807 5806 5805 5805 5804 5802 5801 5800 5798 5797 5795 5792
5583 5588 5591 5595 5604 5612 5620 5627 5634 5639 5646 5654 5660 5666 5672 5676 5680 5686 5691 5695 5700 5706 5714 5720 5723 5726 5729 5732 5735 5738 5741 5744 5747 5750 5753 5756 5758 5761 5763 5765 5768 5770 5772 5775 5777 5779 5782 5783 5785 5787 5789 5790 5792 5793 5795 5796 5797 5798 5799 5800 5801 5801 5801 5801 5801 5801 5801 5802 5802 5802 5802 5802 5801 5800 5800 5799 5798 5798 5796 5795 5794 5793 5792 5790 5789 5787 5784
5575 5580 5584 5591 5601 5609 5616 5623 5630 5636 5642 5649 5655 5661 5666 5671 5676 5681 5686 5691 5696 5701 5707 5714 5719 5721 5724 5727 5730 5733 5736 5739 5742 5745 5748 5750 5753 5755 5758 5760 5762 5765 5767 5769 5772 5774 5776 5778 5780 5782 5783 5785 5786 5787 5788 5790 5791 5792 5793 5793 5794 5795 5795 5795 5795 5795 5795 5795 5795 5795 5794 5794 5794 5793 5792 5792 5791 5790 5788 5786 5785 5784 5783 5782 5781 5778 5775
5568 5573 5580 5589 5599 5606 5613 5621 5627 5632 5638 5645 5652 5657 5662 5666 5671 5677 5682 5687 5692 5696 5701 5706 5712 5716 5719 5721 5725 5728 5731 5734 5737 5740 5742 5745 5747 5750 5752 5754 5756 5759 5761 5764 5766 5768 5770 5772 5774 5776 5777 5779 5780 5781 5782 5783 5784 5785 5786 5786 5787 5787 5788 5788 5788 5788 5788 5788 5788 5787 5787 5787 5787 5786 5785 5784 5784 5782 5780 5779 5777 5776 5775 5773 5772 5769 5766
5562 5569 5579 5589 5598 5604 5611 5618 5624 5629 5636 5643 5649 5654 5658 5663 5667 5673 5678 5683 5688 5692 5695 5700 5706 5711 5713 5716 5719 5722 5725 5728 5731 5734 5737 5739 5742 5744 5746 5748 5751 5753 5755 5758 5760 5762 5764 5766 5768 5769 5771 5772 5773 5774 5775 5776 5777 5778 5779 5779 5780 5780 5780 5781 5781 5781 5781 5781 5780 5780 5780 5780 5780 5779 5778 5777 5775 5773 5772 5771 5770 5769 5768 5766 5763 5761 5759
5560 5568 5578 5588 5596 5602 5608 5615 5621 5628 5636 5643 5647 5650 5655 5661 5666 5672 5676 5680 5683 5687 5690 5694 5699 5704 5707 5710 5713 5716 5719 5722 5725 5728 5731 5734 5736 5739 5741 5743 5745 5747 5749 5751 5754 5756 5758 5760 5761 5763 5764 5766 5767 5768 5769 5770 5770 5771 5772 5772 5773 5773 5773 5773 5773 5773 5773 5773 5773 5773 5773 5772 5772 5771 5770 5768 5767 5765 5764 5764 5763 5762 5760 5758 5756 5754 5751
5560 5569 5578 5586 5593 5600 5607 5614 5620 5628 5636 5641 5643 5646 5653 5661 5667 5672 5676 5678 5679 5680 5683 5687 5691 5695 5700 5703 5705 5708 5712 5715 5718 5721 5725 5728 5730 5733 5735 5737 5739 5741 5743 5745 5747 5749 5752 5754 5755 5757 5758 5759 5760 5761 5762 5763 5764 5765 5765 5766 5766 5766 5766 5766 5766 5765 5765 5765 5765 5765 5765 5765 5764 5763 5762 5760 5759 5757 5756 5756 5755 5755 5753 5750 5749 5747 5744
5564 5572 5580 5587 5595 5601 5608 5613 5620 5627 5633 5637 5639 5645 5653 5660 5666 5670 5673 5675 5675 5674 5676 5679 5683 5686 5691 5695 5698 5701 5705 5709 5712 5715 5718 5721 5724 5726 5729 5730 5732 5734 5736 5738 5741 5743 5746 5747 5749 5750 5751 5752 5754 5755 5756 5756 5757 5758 5758 5759 5759 5759 5759 5759 5758 5757 5757 5757 5757 5757 5757 5757 5757 5756 5755 5753 5751 5750 5749 5749 5748 5748 5747 5744 5742 5740 5736
5570 5576 5582 5590 5597 5603 5608 5613 5618 5624 5629 5633 5638 5644 5650 5656 5662 5665 5667 5669 5671 5671 5670 5672 5674 5678 5683 5688 5692 5695 5699 5703 5706 5709 5712 5714 5717 5720 5722 5724 5726 5727 5729 5732 5734 5737 5739 5741 5742 5744 5745 5746 5747 5749 5749 5750 5751 5751 5752 5752 5752 5752 5752 5751 5751 5750 5750 5750 5750 5750 5750 5749 5749 5749 5748 5747 5745 5743 5742 5742 5741 5741 5740 5737 5735 5733 5730
5576 5581 5586 5592 5598 5604 5608 5613 5617 5621 5626 5631 5636 5641 5647 5653 5659 5661 5662 5664 5667 5667 5665 5666 5668 5672 5677 5681 5685 5689 5693 5696 5699 5702 5705 5708 5710 5713 5715 5717 5719 5721 5723 5725 5728 5730 5732 5734 5736 5738 5739 5741 5742 5743 5743 5744 5744 5744 5745 5745 5745 5745 5744 5744 5744 5743 5743 5743 5743 5743 5743 5742 5742 5742 5741 5740 5738 5737 5735 5735 5734 5734 5733 5731 5729 5727 5724
5580 5586 5592 5597 5601 5605 5609 5613 5617 5621 5625 5629 5634 5639 5644 5650 5654 5656 5657 5660 5661 5661 5660 5661 5663 5667 5671 5675 5678 5682 5686 5690 5693 5695 5698 5701 5703 5706 5708 5710 5712 5715 5717 5719 5722 5724 5727 5729 5731 5732 5734 5735 5736 5736 5737 5737 5737 5737 5737 5737 5737 5737 5737 5737 5737 5736 5736 5736 5735 5735 5735 5735 5735 5735 5735 5734 5732 5730 5729 5728 5727 5726 5725 5724 5722 5720 5718
5584 5589 5594 5598 5602 5605 5608 5611 5616 5620 5624 5628 5633 5637 5642 5646 5649 5651 5652 5654 5655 5655 5655 5656 5658 5661 5665 5669 5673 5677 5681 5684 5687 5689 5691 5694 5697 5699 5702 5704 5706 5708 5710 5713 5716 5718 5720 5722 5724 5726 5728 5729 5729 5729 5729 5729 5729 5730 5729 5729 5729 5729 5729 5729 5729 5728 5728 5728 5728 5728 5728 5728 5728 5728 5728 5727 5725 5724 5723 5722 5721 5720 5718 5717 5715 5713 5711
5588 5591 5595 5599 5602 5605 5608 5611 5614 5618 5622 5626 5631 5635 5638 5641 5643 5645 5646 5648 5649 5649 5650 5652 5655 5657 5661 5665 5669 5673 5677 5680 5681 5683 5685 5688 5691 5693 5696 5698 5699 5701 5703 5707 5710 5712 5714 5716 5718 5720 5722 5722 5722 5722 5722 5722 5722 5722 5722 5722 5721 5721 5721 5721 5720 5720 5720 5720 5720 5720 5720 5721 5721 5721 5721 5720 5719 5718 5717 5715 5714 5713 5711 5709 5708 5707 5704
5592 5595 5598 5600 5603 5606 5609 5612 5615 5618 5622 5626 5630 5632 5634 5636 5638 5640 5642 5643 5644 5645 5646 5648 5651 5654 5657 5661 5665 5669 5672 5675 5676 5678 5680 5682 5684 5686 5689 5691 5693 5695 5698 5701 5704 5706 5708 5710 5712 5714 5715 5715 5715 5715 5715 5715 5715 5715 5714 5714 5714 5714 5713 5713 5712 5712 5712 5712 5712 5712 5713 5713 5713 5713 5713 5713 5712 5711 5710 5709 5707 5705 5704 5702 5701 5700 5698
5594 5597 5599 5601 5604 5607 5610 5613 5616 5620 5624 5627 5629 5629 5630 5632 5635 5638 5640 5641 5642 5644 5645 5646 5648 5649 5652 5656 5659 5662 5665 5668 5670 5673 5675 5677 5678 5680 5683 5685 5687 5690 5693 5696 5698 5700 5702 5704 5706 5707 5707 5707 5707 5708 5707 5707 5707 5707 5707 5707 5707 5706 5706 5705 5705 5705 5705 5705 5705 5705 5705 5706 5705 5705 5705 5706 5705 5704 5704 5703 5701 5698 5697 5696 5695 5694 5693
5594 5597 5600 5602 5605 5608 5610 5612 5616 5619 5622 5624 5625 5626 5628 5631 5634 5636 5639 5640 5641 5642 5644 5645 5646 5647 5648 5651 5654 5657 5659 5662 5664 5667 5670 5672 5673 5675 5677 5680 5683 5686 5688 5690 5691 5693 5696 5698 5699 5700 5700 5700 5700 5700 5700 5700 5700 5700 5700 5700 5700 5700 5699 5699 5699 5699 5699 5699 5699 5699 5699 5699 5698 5698 5698 5698 5698 5698 5697 5696 5694 5692 5690 5689 5689 5689 5688
5596 5598 5601 5603 5604 5606 5609 5612 5615 5618 5620 5621 5623 5625 5628 5630 5633 5635 5637 5638 5638 5639 5641 5642 5644 5646 5647 5649 5651 5652 5654 5657 5659 5662 5665 5667 5669 5670 5672 5675 5678 5680 5682 5684 5685 5687 5689 5691 5692 5692 5693 5693 5693 5693 5693 5693 5693 5693 5693 5693 5693 5693 5693 5693 5693 5693 5693 5693 5693 5693 5693 5692 5692 5692 5692 5692 5692 5692 5691 5690 5688 5687 5685 5684 5683 5683 5682
5600 5601 5604 5605 5606 5607 5609 5612 5615 5618 5620 5622 5624 5626 5627 5628 5630 5633 5635 5636 5637 5638 5639 5640 5641 5643 5646 5648 5649 5650 5651 5653 5655 5658 5660 5662 5664 5665 5668 5670 5673 5675 5676 5677 5679 5681 5682 5684 5685 5685 5686 5686 5687 5687 5687 5687 5687 5687 5687 5687 5687 5687 5687 5687 5687 5687 5687 5688 5688 5688 5687 5687 5686 5686 5686 5686 5686 5686 5685 5684 5683 5681 5680 5680 5679 5677 5676
5602 5603 5605 5607 5609 5610 5611 5612 5615 5618 5619 5621 5622 5624 5625 5626 5628 5630 5632 5634 5635 5636 5638 5639 5640 5641 5643 5645 5647 5648 5648 5650 5651 5654 5656 5657 5659 5662 5664 5666 5668 5670 5671 5672 5673 5675 5676 5677 5678 5679 5680 5680 5681 5681 5681 5681 5681 5681 5681 5681 5681 5681 5680 5680 5681 5681 5681 5682 5682 5682 5681 5681 5681 5680 5680 5680 5680 5680 5679 5678 5677 5676 5676 5675 5674 5673 5672
5606 5608 5608 5608 5608 5609 5610 5612 5614 5617 5618 5619 5620 5621 5622 5624 5626 5628 5630 5631 5633 5634 5636 5637 5639 5640 5641 5643 5644 5646 5647 5648 5649 5651 5653 5655 5657 5659 5661 5663 5664 5666 5667 5668 5669 5670 5671 5671 5672 5673 5673 5673 5674 5674 5675 5675 5675 5676 5676 5675 5675 5675 5675 5674 5674 5674 5675 5675 5675 5675 5675 5675 5675 5674 5674 5674 5674 5674 5673 5673 5672 5671 5670 5670 5670 5669 5668
5610 5612 5612 5612 5611 5611 5612 5613 5614 5615 5617 5618 5619 5620 5621 5622 5623 5625 5627 5629 5631 5632 5634 5635 5637 5638 5640 5641 5642 5643 5645 5646 5647 5649 5650 5652 5653 5655 5657 5658 5660 5661 5662 5663 5664 5664 5665 5665 5666 5666 5666 5666 5667 5667 5668 5669 5669 5669 5670 5670 5670 5670 5669 5669 5669 5668 5669 5669 5669 5669 5669 5669 5669 5668 5668 5668 5667 5667 5667 5667 5666 5666 5665 5664 5664 5664 5664
5610 5611 5612 5613 5613 5614 5615 5616 5616 5616 5617 5618 5619 5619 5620 5621 5622 5623 5625 5626 5628 5629 5631 5632 5634 5635 5637 5638 5639 5640 5641 5643 5644 5645 5646 5647 5648 5650 5652 5653 5654 5655 5656 5657 5658 5659 5659 5659 5660 5660 5660 5661 5661 5661 5662 5662 5663 5663 5663 5664 5664 5664 5664 5664 5663 5663 5663 5663 5663 5663 5663 5663 5663 5662 5662 5662 5661 5660 5660 5660 5660 5659 5659 5659 5658 5658 5658
5612 5612 5612 5613 5613 5614 5615 5616 5617 5618 5618 5619 5619 5619 5620 5621 5621 5622 5623 5624 5625 5626 5627 5628 5630 5631 5633 5634 5635 5636 5637 5639 5640 5641 5642 5642 5644 5645 5646 5648 5649 5650 5651 5651 5652 5653 5653 5654 5654 5655 5655 5655 5656 5656 5656 5656 5656 5656 5657 5657 5657 5658 5658 5658 5658 5658 5657 5657 5657 5657 5657 5657 5657 5657 5656 5656 5655 5655 5654 5654 5654 5653 5653 5653 5652 5652 5652
5613 5613 5613 5613 5613 5614 5615 5616 5616 5617 5617 5617 5618 5618 5619 5620 5620 5620 5621 5622 5622 5623 5624 5625 5626 5627 5629 5630 5631 5632 5633 5634 5635 5636 5637 5638 5639 5640 5641 5643 5644 5645 5646 5647 5648 5648 5648 5649 5649 5650 5650 5650 5650 5649 5649 5649 5649 5650 5650 5650 5651 5651 5652 5652 5652 5652 5652 5652 5651 5651 5651 5651 5651 5651 5651 5650 5650 5649 5649 5648 5648 5648 5648 5647 5647 5647 5646
5614 5614 5614 5614 5614 5614 5615 5615 5616 5616 5616 5616 5616 5617 5617 5618 5618 5618 5619 5620 5620 5621 5621 5622 5623 5624 5625 5626 5627 5628 5629 5630 5631 5632 5633 5634 5635 5636 5637 5638 5639 5640 5641 5642 5643 5643 5643 5644 5644 5644 5644 5644 5644 5643 5643 5644 5644 5644 5644 5644 5645 5645 5646 5646 5646 5647 5647 5647 5646 5646 5646 5645 5645 5645 5645 5645 5645 5644 5644 5643 5643 5643 5643 5642 5642 5642 5642
5615 5615 5614 5614 5614 5614 5615 5615 5615 5615 5615 5616 5616 5616 5616 5616 5616 5616 5617 5617 5618 5618 5619 5620 5620 5621 5622 5623 5624 5625 5626 5626 5627 5628 5629 5630 5631 5631 5632 5633 5634 5635 5636 5637 5637 5638 5638 5638 5638 5638 5638 5638 5638 5638 5638 5638 5638 5638 5639 5639 5639 5639 5640 5640 5641 5641 5641 5641 5641 5641 5640 5640 5640 5639 5639 5639 5639 5639 5639 5638 5638 5638 5637 5637 5637 5637 5637
5616 5616 5615 5614 5614 5614 5614 5614 5614 5614 5614 5615 5615 5615 5615 5615 5615 5615 5615 5615 5615 5616 5616 5617 5617 5618 5619 5620 5620 5621 5622 5623 5623 5624 5625 5626 5626 5627 5628 5628 5629 5630 5631 5632 5632 5633 5633 5633 5633 5633 5633 5632 5632 5632 5632 5632 5633 5633 5633 5633 5634 5634 5634 5635 5635 5635 5635 5635 5635 5635 5634 5634 5634 5634 5634 5634 5634 5633 5633 5633 5633 5632 5632 5632 5632 5632 5632
5615 5615 5615 5614 5613 5613 5612 5612 5612 5612 5612 5612 5612 5613 5613 5613 5613 5613 5613 5613 5613 5613 5613 5614 5614 5615 5616 5616 5617 5618 5618 5619 5619 5620 5621 5621 5622 5623 5623 5624 5625 5626 5626 5627 5627 5628 5628 5628 5628 5628 5628 5627 5627 5627 5627 5627 5627 5628 5628 5628 5628 5628 5629 5629 5629 5629 5629 5629 5629 5629 5629 5628 5628 5628 5628 5628 5628 5627 5627 5627 5627 5627 5626 5626 5626 5626 5626
5613 5613 5613 5613 5613 5612 5612 5611 5611 5610 5610 5610 5610 5610 5610 5610 5611 5611 5611 5611 5611 5611 5611 5612 5612 5613 5613 5614 5614 5615 5615 5616 5616 5617 5617 5618 5618 5619 5620 5620 5621 5621 5621 5622 5622 5622 5623 5623 5623 5623 5623 5622 5622 5622 5622 5622 5622 5622 5622 5622 5623 5623 5623 5623 5623 5623 5623 5623 5623 5623 5623 5623 5623 5622 5622 5622 5622 5621 5621 5620 5620 5620 5620 5620 5620 5620 5620